Regional Weather Roundup
Issued by NWS

Home | Current Version | Previous Version | Graphics & Text | Print | Product List | Glossary On
Versions: 1 2 3 4 5 6 7 8 9 10 11 12 13 14 15 16 17 18 19 20 21 22 23 24 25 26 27 28 29 30 31 32 33 34 35 36 37 38 39 40 41 42 43 44 45 46 47 48 49 50
000
ASUS43 KFSD 021802
RWRSD

WEATHER ROUNDUP FOR SOUTH DAKOTA
NATIONAL WEATHER SERVICE SIOUX FALLS SD
100 PM CDT THU JUL 02 2015

NOTE: "FAIR" INDICATES FEW OR NO CLOUDS BELOW 12,000 FEET WITH NO
SIGNIFICANT WEATHER AND/OR OBSTRUCTIONS TO VISIBILITY.


SDZ001>005-009-010-012>017-021900-
NORTHWEST AND NORTH CENTRAL SOUTH DAKOTA

CITY           SKY/WX    TMP DP  RH WIND       PRES   REMARKS
BUFFALO          N/A     74  56  53 NW23      30.02F
FAITH            N/A     76  58  53 N10G17    30.04F
MOBRIDGE       PTSUNNY   75  68  78 NW12      29.97S
$$

SDZ012>016-024>037-041>051-057-063-072>074-021900-
SOUTHWEST AND SOUTH CENTRAL SOUTH DAKOTA

CITY           SKY/WX    TMP DP  RH WIND       PRES   REMARKS
RAPID CTY ARPT MOSUNNY   77  62  59 N17       30.09F
PIERRE         PTSUNNY   72  64  76 NW9       29.98S
CUSTER         MOSUNNY   71  49  45 N10G21    30.21S
ELLSWORTH AFB  PTSUNNY   74  62  66 N12       30.09S
PHILIP         MOSUNNY   79  63  57 N10       30.02F
PINE RIDGE     MOSUNNY   78  59  51 N12G23    30.09S
WINNER         CLOUDY    74  62  66 VRB7      29.98F
$$

SDZ004>011-016>023-039-040-021900-
NORTHEAST SOUTH DAKOTA

CITY           SKY/WX    TMP DP  RH WIND       PRES   REMARKS
ABERDEEN       LGT RAIN  63  60  90 SE3       30.00S
WATERTOWN      CLOUDY    70  50  49 S6        30.01S
BROOKINGS      CLOUDY    70  50  49 E8        30.02F
SISSETON         N/A     72  52  49 VRB7      29.99S
$$

SDZ017-020-022-023-036>040-048>070-021900-
SOUTHEAST SOUTH DAKOTA

CITY           SKY/WX    TMP DP  RH WIND       PRES   REMARKS
SIOUX FALLS    CLOUDY    69  59  70 E9        29.99F
HURON          RAIN      64  58  80 CALM      29.98F
MITCHELL       PTSUNNY   71  63  75 SE6       29.98R
YANKTON        CLOUDY    61  57  88 E9        29.95F
$$

ABBREVIATIONS USED IN REMARKS
   TC - TEMPERATURE IN CELSIUS
  WCI - WIND CHILL INDEX
   HX - HEAT INDEX
  VSB - VISIBILITY




USA.gov is the U.S. government's official web portal to all federal, state and local government web resources and services.